Regional Weather Roundup
Issued by NWS Little Rock, AR

Home | Current Version | Previous Version | Graphics & Text | Print | Product List | Glossary On
Versions: 1 2 3 4 5 6 7 8 9 10 11 12 13 14 15 16 17 18 19 20 21 22 23 24 25 26 27 28 29 30 31 32
000
ASUS44 KLZK 191812
RWRLZK

WEATHER ROUNDUP FOR ARKANSAS
NATIONAL WEATHER SERVICE LITTLE ROCK AR
100 PM CDT SAT AUG 19 2017

NOTE: "FAIR" INDICATES FEW OR NO CLOUDS BELOW 12,000 FEET WITH NO
SIGNIFICANT WEATHER AND/OR OBSTRUCTIONS TO VISIBILITY.

ARZ001-003-010-029-191900-
NORTHWEST ARKANSAS

CITY           SKY/WX    TMP DP  RH WIND       PRES   REMARKS
FAYETTEVILLE   SUNNY     87  76  69 S5        30.02F HX  97
6HR MIN TEMP:  69; 6HR MAX TEMP:  88;

FORT SMITH     SUNNY     92  72  51 VRB6      29.97F HX  99
6HR MIN TEMP:  72; 6HR MAX TEMP:  92;

HARRISON       SUNNY     88  75  65 NW8       30.03F HX  97
6HR MIN TEMP:  69; 6HR MAX TEMP:  89;

BENTONVILLE    MOSUNNY   88  73  62 W7        30.03F HX  96
6HR MIN TEMP:  70; 6HR MAX TEMP:  88;

ROGERS         SUNNY     86  74  67 VRB5      30.03F HX  94
6HR MIN TEMP:  71; 6HR MAX TEMP:  88;

SILOAM SPGS    SUNNY     90  72  55 W6        30.01F HX  96
6HR MIN TEMP:  70; 6HR MAX TEMP:  90;

HIGHFILL       SUNNY     88  75  65 VRB6      30.02F HX  97
6HR MIN TEMP:  70; 6HR MAX TEMP:  89;

SPRINGDALE     MOSUNNY   88  75  66 SW8G15    30.04F HX  97
$$

ARZ004-005-016-191900-
NORTH CENTRAL ARKANSAS

CITY           SKY/WX    TMP DP  RH WIND       PRES   REMARKS
BATESVILLE     MOSUNNY   91  75  59 NW5       29.98S HX 102
6HR MIN TEMP:  70; 6HR MAX TEMP:  91;

FLIPPIN        SUNNY     90  73  58 E3        29.97F HX  98
6HR MIN TEMP:  68; 6HR MAX TEMP:  90;

MTN HOME       SUNNY     87  76  69 VRB7      30.00F HX  97
6HR MIN TEMP:  68; 6HR MAX TEMP:  88;

$$

ARZ040-041-191900-
WEST CENTRAL ARKANSAS

CITY           SKY/WX    TMP DP  RH WIND       PRES   REMARKS
MENA           SUNNY     91  77  62 W5        30.02S HX 105
MOUNT IDA      SUNNY     92  71  50 CALM      29.98F HX  98
6HR MIN TEMP:  70; 6HR MAX TEMP:  93;

$$

ARZ009-017-025-026-028-191900-
NORTHEAST ARKANSAS

CITY           SKY/WX    TMP DP  RH WIND       PRES   REMARKS
CORNING        FAIR      90  79  70 NW5       29.96F HX 105
JONESBORO      SUNNY     91  78  65 NE6       29.97S HX 106
6HR MIN TEMP:  74; 6HR MAX TEMP:  91;

NEWPORT        MOSUNNY   90  78  68 E6        29.97F HX 104
6HR MIN TEMP:  72; 6HR MAX TEMP:  90;

WALNUT RIDGE   SUNNY     90  73  58 NW5       29.96S HX  98
6HR MIN TEMP:  72; 6HR MAX TEMP:  91;

BLYTHEVILLE    SUNNY     90  78  68 VRB5      29.97F HX 104
6HR MIN TEMP:  71; 6HR MAX TEMP:  91;

$$

ARZ022-023-033-042-044-191900-
CENTRAL ARKANSAS

CITY           SKY/WX    TMP DP  RH WIND       PRES   REMARKS
LITTLE ROCK    MOSUNNY   92  78  63 NW6       29.98F HX 107
6HR MIN TEMP:  71; 6HR MAX TEMP:  92;

N LITTLE ROCK    N/A     89  77  67 N3        29.99S HX 100
6HR MIN TEMP:  71; 6HR MAX TEMP:  89;

JACKSONVILLE   SUNNY     91  77  64 NW7       29.98S HX 103
6HR MIN TEMP:  71; 6HR MAX TEMP:  91;

CONWAY           N/A     91  79  66 S7        29.96F HX 107
SEARCY         MOSUNNY   92  78  63 CALM      29.99F HX 107
6HR MIN TEMP:  70; 6HR MAX TEMP:  93;

HOT SPRINGS    SUNNY     94  77  57 W8        29.98F HX 108
6HR MIN TEMP:  72; 6HR MAX TEMP:  94;

RUSSELLVILLE   SUNNY     89  75  63 W9        29.97F HX  99
6HR MIN TEMP:  69; 6HR MAX TEMP:  89;

CLINTON        FAIR      91  77  62 CALM      29.97F HX 105
$$

ARZ036-191900-
EAST ARKANSAS

CITY           SKY/WX    TMP DP  RH WIND       PRES   REMARKS
WEST MEMPHIS   MOSUNNY   89  78  70 CALM      29.97F HX 103
6HR MIN TEMP:  71; 6HR MAX TEMP:  89;

$$

ARZ050-053-066-070-073-191900-
SOUTHWEST ARKANSAS

CITY           SKY/WX    TMP DP  RH WIND       PRES   REMARKS
ARKADELPHIA    FAIR      93  79  63 CALM      29.98F HX 110
6HR MIN TEMP:  72; 6HR MAX TEMP:  93;

CAMDEN         SUNNY     95  75  52 VRB6G12   29.97F HX 107
TEXARKANA      SUNNY     92  75  57 SW12      29.99F HX 103
6HR MIN TEMP:  77; 6HR MAX TEMP:  92;

EL DORADO      MOSUNNY   93  75  55 SW7       30.00F HX 104
6HR MIN TEMP:  76; 6HR MAX TEMP:  93;

DE QUEEN       SUNNY     91  79  67 VRB7      29.97F HX 107
6HR MIN TEMP:  75; 6HR MAX TEMP:  92;

$$

ARZ056-057-069-191900-
SOUTHEAST ARKANSAS

CITY           SKY/WX    TMP DP  RH WIND       PRES   REMARKS
PINE BLUFF     MOSUNNY   91  75  59 W9        29.98F HX 101
6HR MIN TEMP:  72; 6HR MAX TEMP:  92;

MONTICELLO     MOSUNNY   91  75  59 VRB6      29.99F HX 101
6HR MIN TEMP:  73; 6HR MAX TEMP:  92;


$$






USA.gov is the U.S. government's official web portal to all federal, state and local government web resources and services.